Greer, SC

9:53 AM EST on December 03, 2016 (GMT -0500)
Greenville-Spartanburg International

Weather History for KGSP - April, 2014

Change the Weather History Date:

Tuesday, April 15, 2014

  Actual Average Record
Temperature  
Mean Temperature 52 °F 60 °F  
Max Temperature 66 °F 73 °F 91 °F (2006)
Min Temperature 37 °F 48 °F 22 °F (1907)
Degree Days  
Heating Degree Days 13 6  
Month to date heating degree days 63 108  
Since 1 July heating degree days 3099 2941  
Cooling Degree Days 0 1  
Month to date cooling degree days 20 15  
Year to date cooling degree days 20 23  
Growing Degree Days 2 (Base 50)    
Moisture  
Dew Point 51 °F    
Average Humidity 75    
Maximum Humidity 100    
Minimum Humidity 50    
Precipitation  
Precipitation 0.66 in 0.10 in 2.84 in (1956)
Month to date precipitation 3.60 1.69  
Year to date precipitation 13.93 14.00  
Snow  
Snow 0.00 in 0.00 in T in (1903)
Month to date snowfall 0.0 0.0  
Since 1 July snowfall 7.2 4.7  
Snow Depth 0.00 in    
Sea Level Pressure  
Sea Level Pressure 29.74 in    
Wind  
Wind Speed 11 mph (WSW)    
Max Wind Speed 23 mph    
Max Gust Speed 35 mph    
Visibility 8 miles    
Events Rain    
T = Trace of Precipitation, MM = Missing Value Source: NWS Daily Summary

Daily Weather History Graph

Daily Weather History Graph

Search for Another Location

Airport or City:

Trip Planner

Search our weather history database for the weather conditions in past years. The results will help you decide how hot, cold, wet, or windy it might be!

Date:

Astronomy

Apr. 15, 2014 Rise Set
Actual Time 6:57 AM EDT 8:01 PM EDT
Civil Twilight 6:31 AM EDT 8:27 PM EDT
Nautical Twilight 6:00 AM EDT 8:58 PM EDT
Astronomical Twilight 5:28 AM EDT 9:30 PM EDT
Moon 8:39 PM EDT (4/15) 7:04 AM EDT (4/15)
Length of Visible Light 13h 56m
Length of Day
13h 04m
Full, 100% of the Moon is Illuminated
Apr 15
Full
Apr 22
Last Quarter
Apr 29
New
May 6
First Quarter
May 14
Full

Hourly Weather History & Observations

Time (EDT) Temp. Windchill Dew Point Humidity Pressure Visibility Wind Dir Wind Speed Gust Speed Precip Events Conditions
12:43 AM 64.0 °F - 63.0 °F 96% 29.79 in 4.0 mi South 5.8 mph - 0.01 in Rain Light Rain
12:53 AM 64.0 °F - 63.0 °F 96% 29.76 in 4.0 mi SSW 5.8 mph - 0.01 in Rain Light Rain
1:21 AM 64.0 °F - 63.0 °F 96% 29.79 in 1.5 mi South 6.9 mph - 0.08 in Rain Heavy Rain
1:33 AM 64.0 °F - 63.0 °F 96% 29.78 in 3.0 mi SSW 8.1 mph - 0.18 in Rain Light Rain
1:53 AM 64.0 °F - 63.0 °F 96% 29.74 in 7.0 mi South 9.2 mph - 0.20 in Rain Light Rain
2:02 AM 64.0 °F - 63.0 °F 96% 29.76 in 9.0 mi SSW 6.9 mph - 0.01 in Rain Light Rain
2:24 AM 64.0 °F - 63.0 °F 96% 29.76 in 5.0 mi SSW 10.4 mph - 0.03 in Rain Rain
2:53 AM 64.0 °F - 63.0 °F 96% 29.72 in 5.0 mi SSW 10.4 mph - 0.09 in Rain Rain
3:10 AM 64.0 °F - 63.0 °F 96% 29.74 in 5.0 mi SW 11.5 mph - 0.04 in Rain Rain
3:53 AM 64.0 °F - 62.1 °F 93% 29.71 in 10.0 mi SW 10.4 mph - 0.07 in   Overcast
4:42 AM 64.0 °F - 62.1 °F 93% 29.74 in 10.0 mi SW 13.8 mph - 0.01 in   Overcast
4:53 AM 63.0 °F - 61.0 °F 93% 29.71 in 10.0 mi SSW 11.5 mph - 0.01 in Rain Light Rain
5:53 AM 62.1 °F - 60.1 °F 93% 29.70 in 10.0 mi WSW 10.4 mph - 0.01 in   Overcast
6:53 AM 61.0 °F - 60.1 °F 97% 29.64 in 10.0 mi SSE 4.6 mph - N/A   Mostly Cloudy
7:53 AM 62.1 °F - 60.1 °F 93% 29.68 in 10.0 mi South 9.2 mph - N/A   Overcast
8:19 AM 62.1 °F - 60.1 °F 93% 29.69 in 10.0 mi SSW 9.2 mph - N/A   Overcast
8:21 AM 62.1 °F - 60.1 °F 93% 29.70 in 10.0 mi SSW 9.2 mph - N/A   Overcast
8:41 AM 62.1 °F - 60.1 °F 93% 29.69 in 10.0 mi SSW 9.2 mph - N/A   Overcast
8:53 AM 62.1 °F - 60.1 °F 93% 29.68 in 10.0 mi SSW 9.2 mph - N/A   Overcast
9:53 AM 63.0 °F - 61.0 °F 93% 29.65 in 4.0 mi South 10.4 mph - 0.01 in Rain Light Rain
10:51 AM 62.6 °F - 60.8 °F 94% 29.67 in 7.0 mi SSW 15.0 mph - 0.00 in Rain Light Rain
10:53 AM 63.0 °F - 61.0 °F 93% 29.65 in 10.0 mi SSW 15.0 mph - 0.00 in   Overcast
11:07 AM 64.0 °F - 61.0 °F 90% 29.67 in 10.0 mi SSW 16.1 mph - N/A   Overcast
11:53 AM 64.0 °F - 61.0 °F 90% 29.65 in 10.0 mi SSW 17.3 mph 24.2 mph N/A   Overcast
12:53 PM 66.0 °F - 62.1 °F 87% 29.63 in 10.0 mi SSW 17.3 mph 26.5 mph N/A   Overcast
1:37 PM 53.1 °F - 50.0 °F 89% 29.68 in 1.2 mi NW 15.0 mph 29.9 mph 0.02 in Rain Heavy Rain
1:41 PM 51.1 °F - 48.9 °F 92% 29.69 in 0.8 mi NW 13.8 mph 29.9 mph 0.15 in Rain Heavy Rain
1:47 PM 50.0 °F - 46.4 °F 87% 29.68 in 1.0 mi North 9.2 mph 20.7 mph 0.21 in Rain Rain
1:51 PM 48.2 °F - 46.4 °F 93% 29.68 in 3.0 mi NNW 11.5 mph 20.7 mph 0.22 in Rain Rain
1:53 PM 48.9 °F - 46.9 °F 93% 29.67 in 3.0 mi NW 11.5 mph 20.7 mph 0.22 in Rain Rain
2:04 PM 48.9 °F - 46.0 °F 90% 29.69 in 2.5 mi NNW 8.1 mph 20.7 mph 0.05 in Rain Light Rain
2:13 PM 48.9 °F - 46.0 °F 90% 29.69 in 10.0 mi NNW 9.2 mph - 0.05 in Rain Light Rain
2:53 PM 50.0 °F - 46.0 °F 86% 29.68 in 10.0 mi NNW 6.9 mph 18.4 mph 0.05 in   Overcast
3:34 PM 55.9 °F - 46.9 °F 72% 29.69 in 10.0 mi NNW 12.7 mph 19.6 mph N/A   Mostly Cloudy
3:53 PM 55.0 °F - 43.0 °F 64% 29.68 in 10.0 mi NW 10.4 mph 18.4 mph N/A   Mostly Cloudy
4:53 PM 55.0 °F - 39.0 °F 55% 29.71 in 10.0 mi NNW 15.0 mph 24.2 mph N/A   Partly Cloudy
5:53 PM 52.0 °F - 35.1 °F 53% 29.75 in 10.0 mi North 16.1 mph 29.9 mph N/A   Partly Cloudy
6:53 PM 46.9 °F - 30.9 °F 54% 29.82 in 10.0 mi NNW 12.7 mph 29.9 mph N/A   Partly Cloudy
7:53 PM 43.0 °F 36.0 °F 30.0 °F 60% 29.90 in 10.0 mi NNW 13.8 mph 25.3 mph N/A   Clear
8:53 PM 41.0 °F 35.8 °F 27.0 °F 57% 29.96 in 10.0 mi NNW 8.1 mph 18.4 mph N/A   Clear
9:53 PM 39.9 °F 33.4 °F 25.0 °F 55% 29.98 in 10.0 mi North 10.4 mph 19.6 mph N/A   Clear
10:53 PM 39.0 °F 30.6 °F 23.0 °F 53% 29.99 in 10.0 mi NNW 15.0 mph 27.6 mph N/A   Clear
11:53 PM 37.9 °F - 21.9 °F 53% 30.04 in 10.0 mi Calm Calm - N/A   Clear